Date String (YYYY-MM-DD hh:mm:ss) UTC,Instrument flags,Ambient pressure (hPa),Sample flow (lpm),Bypass flow (lpm),Sample temperature (°C),Ambient temperature (°C),ASC tube jacket temperature (°C),LED temperature (°C),Box temperature (°C),Sample RH (%),Span deviation,Mass concentration (μg/m³),Mass concentration (μg/m³),Mass concentration (μg/m³)
DateTimeUTC,F1_M11,P_M11,Q1_M11,Q2_M11,T1_M11,T2_M11,T3_M11,T4_M11,T5_M11,U1_M11,ZSPAN_M11,X2_M11,X0_M11,X1_M11
2022-12-20 04:00:00,,0829.1,5.01,0.00,22.0,20.5,00.0,30.8,23.7,04.6,0000.0,0001.55,0002.48,0001.16
2022-12-20 04:01:00,,0829.0,4.97,0.00,22.0,20.4,00.0,30.8,23.7,04.7,0000.0,0001.51,0002.36,0001.18
2022-12-20 04:02:00,,0829.2,5.04,0.00,21.9,20.4,00.0,30.8,23.6,04.5,0000.0,0001.51,0002.27,0001.19
2022-12-20 04:03:00,,0829.2,4.95,0.00,21.9,20.3,00.0,30.8,23.6,04.5,0000.0,0001.50,0002.13,0001.19
2022-12-20 04:04:00,,0829.2,5.04,0.00,21.9,20.5,00.0,30.8,23.6,04.7,0000.0,0001.51,0002.09,0001.21
2022-12-20 04:05:00,,0829.2,5.00,0.00,22.0,21.4,00.0,30.7,23.9,04.7,0000.0,0001.55,0002.19,0001.24
2022-12-20 04:06:00,,0829.2,5.01,0.00,22.1,22.1,00.0,30.7,24.1,04.7,0000.0,0001.54,0002.12,0001.26
2022-12-20 04:07:00,,0829.2,4.97,0.00,22.1,21.9,00.0,30.8,24.1,04.5,0000.0,0001.52,0002.04,0001.29
2022-12-20 04:08:00,,0829.2,5.06,0.00,22.1,21.5,00.0,30.8,24.0,04.4,0000.0,0001.54,0002.09,0001.29
2022-12-20 04:09:00,,0829.2,4.96,0.00,22.1,21.1,00.0,30.9,23.9,04.5,0000.0,0001.53,0002.08,0001.29
2022-12-20 04:10:00,,0829.2,5.02,0.00,22.1,20.8,00.0,30.9,23.8,04.7,0000.0,0001.53,0002.12,0001.30
2022-12-20 04:11:00,,0829.2,4.99,0.00,22.0,20.7,00.0,30.9,23.7,04.7,0000.0,0001.56,0002.52,0001.31
2022-12-20 04:12:00,,0829.2,4.99,0.00,22.0,20.6,00.0,30.9,23.7,04.7,0000.0,0001.60,0003.71,0001.33
2022-12-20 04:13:00,,0829.2,5.04,0.00,22.0,20.5,00.0,30.9,23.6,04.7,0000.0,0001.61,0003.76,0001.34
2022-12-20 04:14:00,,0829.2,4.98,0.00,21.9,20.3,00.0,30.8,23.5,04.7,0000.0,0001.65,0003.88,0001.36
2022-12-20 04:15:00,,0829.1,5.00,0.00,21.9,20.1,00.0,30.8,23.4,04.7,0000.0,0001.68,0004.08,0001.37
2022-12-20 04:16:00,,0829.1,5.03,0.00,21.8,20.1,00.0,30.8,23.4,04.6,0000.0,0001.71,0004.15,0001.39
2022-12-20 04:17:00,,0829.2,4.98,0.00,21.8,19.9,00.0,30.8,23.3,04.4,0000.0,0001.76,0004.30,0001.41
2022-12-20 04:18:00,,0829.2,4.98,0.00,21.7,19.6,00.0,30.7,23.1,04.6,0000.0,0001.78,0004.39,0001.42
2022-12-20 04:19:00,,0829.1,5.01,0.00,21.6,19.4,00.0,30.7,23.0,04.8,0000.0,0001.79,0004.43,0001.43
2022-12-20 04:20:00,,0829.2,5.04,0.00,21.5,19.3,00.0,30.7,22.9,04.8,0000.0,0001.84,0004.60,0001.45
2022-12-20 04:21:00,,0829.2,4.95,0.00,21.5,20.2,00.0,30.6,23.2,04.7,0000.0,0001.88,0004.65,0001.46
2022-12-20 04:22:00,,0829.2,5.05,0.00,21.7,21.4,00.0,30.5,23.5,04.7,0000.0,0001.87,0004.59,0001.46
2022-12-20 04:23:00,,0829.3,4.98,0.00,21.7,21.6,00.0,30.6,23.6,04.8,0000.0,0001.81,0003.07,0001.44
2022-12-20 04:24:00,,0829.3,4.99,0.00,21.8,21.3,00.0,30.6,23.6,04.8,0000.0,0001.81,0003.07,0001.43
2022-12-20 04:25:00,,0829.2,5.01,0.00,21.7,20.9,00.0,30.6,23.5,04.8,0000.0,0001.83,0003.05,0001.42
2022-12-20 04:26:00,,0829.2,4.98,0.00,21.7,20.7,00.0,30.6,23.4,04.8,0000.0,0001.81,0002.91,0001.42
2022-12-20 04:27:00,,0829.2,5.01,0.00,21.7,20.5,00.0,30.6,23.4,04.9,0000.0,0001.78,0002.76,0001.41
2022-12-20 04:28:00,,0829.2,5.03,0.00,21.7,20.4,00.0,30.6,23.4,04.9,0000.0,0001.76,0002.69,0001.40
2022-12-20 04:29:00,,0829.1,4.95,0.00,21.7,20.3,00.0,30.6,23.3,04.9,0000.0,0001.77,0002.67,0001.39
2022-12-20 04:30:00,,0829.1,5.03,0.00,21.6,20.2,00.0,30.6,23.3,04.8,0000.0,0001.78,0002.80,0001.40
2022-12-20 04:31:00,,0829.0,5.00,0.00,21.6,20.1,00.0,30.6,23.2,04.8,0000.0,0001.78,0002.78,0001.40
2022-12-20 04:32:00,,0829.1,4.98,0.00,21.6,19.9,00.0,30.6,23.2,04.7,0000.0,0001.77,0002.85,0001.39
2022-12-20 04:33:00,,0829.1,5.04,0.00,21.5,19.8,00.0,30.5,23.1,04.7,0000.0,0001.80,0002.91,0001.39
2022-12-20 04:34:00,,0829.2,4.97,0.00,21.5,19.8,00.0,30.5,23.1,04.7,0000.0,0001.85,0003.03,0001.41
2022-12-20 04:35:00,,0829.2,4.99,0.00,21.5,19.8,00.0,30.5,23.0,04.8,0000.0,0001.88,0003.14,0001.41
2022-12-20 04:36:00,,0829.2,5.02,0.00,21.5,20.6,00.0,30.4,23.3,04.9,0000.0,0001.86,0003.04,0001.41
2022-12-20 04:37:00,,0829.3,4.98,0.00,21.6,21.7,00.0,30.4,23.5,04.8,0000.0,0001.88,0003.09,0001.42
2022-12-20 04:38:00,,0829.2,4.98,0.00,21.7,21.7,00.0,30.5,23.6,04.8,0000.0,0001.91,0003.20,0001.41
2022-12-20 04:39:00,,0829.2,5.04,0.00,21.7,21.3,00.0,30.5,23.6,04.7,0000.0,0001.86,0003.09,0001.39
2022-12-20 04:40:00,,0829.2,4.97,0.00,21.7,21.0,00.0,30.5,23.5,04.8,0000.0,0001.83,0003.03,0001.37
2022-12-20 04:41:00,,0829.2,5.03,0.00,21.7,20.8,00.0,30.5,23.4,04.8,0000.0,0001.81,0002.93,0001.36
2022-12-20 04:42:00,,0829.4,5.01,0.00,21.7,20.6,00.0,30.5,23.4,04.7,0000.0,0001.77,0002.74,0001.35
2022-12-20 04:43:00,,0829.3,4.97,0.00,21.7,20.3,00.0,30.5,23.3,04.7,0000.0,0001.76,0002.67,0001.35
2022-12-20 04:44:00,,0829.5,5.02,0.00,21.6,20.1,00.0,30.5,23.2,04.8,0000.0,0001.73,0002.61,0001.35
2022-12-20 04:45:00,,0829.6,4.98,0.00,21.6,20.0,00.0,30.5,23.1,04.8,0000.0,0001.72,0002.60,0001.34
2022-12-20 04:46:00,,0829.6,4.99,0.00,21.5,19.7,00.0,30.5,23.0,04.8,0000.0,0001.69,0002.51,0001.33
2022-12-20 04:47:00,,0829.6,5.03,0.00,21.5,19.7,00.0,30.5,23.0,04.9,0000.0,0001.66,0002.43,0001.33
2022-12-20 04:48:00,,0829.6,4.99,0.00,21.4,19.6,00.0,30.5,23.0,04.9,0000.0,0001.66,0002.44,0001.33
2022-12-20 04:49:00,,0829.6,4.97,0.00,21.4,19.5,00.0,30.4,22.9,04.8,0000.0,0001.66,0002.36,0001.37
2022-12-20 04:50:00,,0829.6,5.02,0.00,21.3,19.4,00.0,30.4,22.9,04.8,0000.0,0001.69,0002.37,0001.40
2022-12-20 04:51:00,,0829.6,5.03,0.00,21.3,19.8,00.0,30.4,22.9,04.9,0000.0,0001.72,0002.41,0001.43
2022-12-20 04:52:00,,0829.5,4.98,0.00,21.4,21.0,00.0,30.3,23.2,04.9,0000.0,0001.72,0002.39,0001.45
2022-12-20 04:53:00,,0829.6,4.98,0.00,21.6,21.7,00.0,30.3,23.4,04.8,0000.0,0001.72,0002.37,0001.46
2022-12-20 04:54:00,,0829.5,5.04,0.00,21.6,21.2,00.0,30.4,23.4,04.8,0000.0,0001.73,0002.31,0001.49
2022-12-20 04:55:00,,0829.6,4.96,0.00,21.5,20.8,00.0,30.4,23.3,04.7,0000.0,0001.84,0002.43,0001.57
2022-12-20 04:56:00,,0829.6,5.03,0.00,21.5,20.4,00.0,30.4,23.2,04.7,0000.0,0001.98,0002.64,0001.69
2022-12-20 04:57:00,,0829.8,4.95,0.00,21.5,20.0,00.0,30.4,23.1,04.7,0000.0,0002.18,0003.15,0001.84
2022-12-20 04:58:00,,0829.6,5.03,0.00,21.4,19.8,00.0,30.4,23.0,04.8,0000.0,0002.35,0004.69,0001.96
2022-12-20 04:59:00,,0829.6,5.01,0.00,21.4,19.6,00.0,30.4,22.9,04.8,0000.0,0002.42,0005.26,0002.02
